Weather in Tangalle

Sri Lanka     6°01′38″N   80°47′41″E
В апреле 2022 года жителям России запретили посещать сайт meteo.paraplan.net по решению Генеральной прокуратуры. Аудитория сайта уменьшилась в 10 раз. Владельцы сайта не видят смысла в поддержке погодного сервера в таких условиях. Сайт будет закрыт в октябре.
temp.,
°C
wind,
m/s
gust,
m/s
humid.,
%
clouds,
%
prec.,
mm/h
press.,
hPa
HPBL,
m
6 october, thu
thu623:30+26w598499 0.1 1010778
02:30+25w51185100 0.2 1008837
05:30+25w51185100 0.3 1008819
08:30+28w71072100 0.1 10101128
11:30+30w7116097 0.3 10081306
14:30+29w81161100 0.4 10061269
17:30+27w61176100 0.6 1007949
20:30+25w5108499 0.0 1010715
7 october, fri
fri723:30+25w5108584 0.0 1009687
02:30+25w51085100 0.1 1007674
05:30+24w498799 0.2 1008537
08:30+27w6972100 0.1 10101000
11:30+30wsw7106079 0.2 10081277
14:30+28w71168100 0.2 10061169
17:30+26w7117990 0.4 1007992
20:30+25w61284100 0.0 1010849
8 october, sat
sat823:30+25wnw51184100 0.0 1009832
02:30+25wnw61281100 0.0 1007921
05:30+25w5118573 0.0 1008888
08:30+28w61067100 0.0 10101186
11:30+31wsw71058100 0.1 10081380
14:30+30w81058100 0.0 10061301
17:30+27w6117435 0.0 1007987
20:30+25w6128215 0.0 1009740
9 october, sun
sun923:30+25w511857 0.0 1009724
02:30+24w410885 0.0 1008603
05:30+24w49909 0.0 1009509
08:30+28w58698 0.0 10101123
11:30+31wsw795668 0.0 10091308
14:30+31wsw810565 0.0 10061244
17:30+27w711735 0.0 1008910
20:30+25w511857 0.0 1010731
10 october, mon
mon1023:30+25w598888 0.0 1011615
02:30+24w499018 0.0 1009565
05:30+24w489348 0.0 1010419
08:30+28w577184 0.0 10111008
11:30+31wsw786054 0.1 10091282
14:30+30wsw896033 0.0 10071263
17:30+27wsw69745 0.0 1008867
20:30+25w598559 0.0 1010631